Regional Weather Roundup
Issued by NWS

Home | Current Version | Previous Version | Text Only | Print | Product List | Glossary Off
Versions: 1 2 3 4 5 6 7 8 9 10 11 12 13 14 15 16 17 18 19 20 21 22 23 24 25 26 27 28 29 30 31 32 33 34 35 36 37 38 39 40 41 42 43 44 45 46 47 48 49 50

629
ASUS44 KJAN 160103
RWRMS

MISSISSIPPI HOURLY WEATHER ROUNDUP
NATIONAL WEATHER SERVICE JACKSON MS
800 PM CDT TUE APR 15 2014

NOTE: "FAIR: INDICATES FEW OR NO CLOUDS BELOW 12,000 FEET WITH NO
SIGNIFICANT WEATHER AND/OR OBSTRUCTIONS TO VISIBILITY.

MSZ001>002-007>008-010>013-018>021-025>028-034>036-160200-
NORTHWEST MISSISSIPPI

CITY           SKY/WX    TMP DP  RH WIND       PRES   REMARKS
CLARKSDALE       N/A     45  32  61 NE8       30.21R
CLEVELAND      FAIR      45  37  72 CALM      30.21R
GREENWOOD      CLEAR     46  29  51 NW6       30.20R
GREENVILLE     CLEAR     48  33  56 NE7       30.21R
GRENADA        FAIR      41  32  70 N3        30.20R
OLIVE BRANCH   CLEAR     43  27  52 NE8       30.19R
OXFORD         FAIR      43  23  45 N3        30.20R
TUNICA         CLEAR     43  32  65 NE8       30.21R
$$

MSZ003>006-009-014>017-022>024-029>033-037>039-160200-
NORTHEAST MISSISSIPPI

CITY           SKY/WX    TMP DP  RH WIND       PRES   REMARKS
BELMONT        FAIR      44  24  45 CALM      30.15R
COLUMBUS AFB   CLEAR     46  27  49 N7        30.16R
CORINTH        FAIR      45  23  42 N7        30.17R
GOLDN TRIANGLE CLEAR     46  25  42 N9        30.17R
STARKVILLE     FAIR      45  30  57 CALM      30.17R
TUPELO         CLEAR     45  24  43 N8        30.16R
$$

MSZ040-058-160200-
CENTRAL MISSISSIPPI

CITY           SKY/WX    TMP DP  RH WIND       PRES   REMARKS
JACKSON INTL   CLEAR     48  29  47 NW8       30.19R
JACKSON HAWKNS CLEAR     47  29  49 NW6       30.19R
MERIDIAN KEY   CLEAR     46  31  55 N5        30.16R
MERIDIAN NAS   CLEAR     47  27  45 N6        30.17R
RAYMOND        FAIR      46  41  81 NW6       30.20R
VICKSBURG      CLEAR     50  32  50 NE10      30.22R
$$

MSZ059>079-160200-
SOUTH MISSISSIPPI

CITY           SKY/WX    TMP DP  RH WIND       PRES   REMARKS
BROOKHAVEN     FAIR      46  32  57 NW5       30.20R
COLUMBIA       FAIR      48  32  53 MISG      30.16R
HATTIESBURG    CLEAR     52  30  43 N6        30.16R
MCCOMB         CLEAR     49  30  48 N8        30.17R
NATCHEZ          N/A     48  30  49 NE5       30.20R
PINE BELT      CLEAR     48  30  49 NW5       30.16R
$$

MSZ080>082-160200-
COASTAL MISSISSIPPI

CITY           SKY/WX    TMP DP  RH WIND       PRES   REMARKS
BAY ST LOUIS   CLEAR     52  34  50 N6        30.13R
BILOXI         MOCLDY    55  32  42 N10       30.12R
PASCAGOULA     MOCLDY    52  36  54 CALM      30.12R
GULFPORT       PTCLDY    56  30  37 N8        30.12R
$$



USA.gov is the U.S. government's official web portal to all federal, state and local government web resources and services.